Weather in Poldnevoj

Russia / Sverdlovsk Oblast     56°39′01″N   62°05′40″E
temp.,
°C
wind,
m/s
gust,
m/s
humid.,
%
clouds,
%
prec.,
mm/h
press.,
hPa
HPBL,
m
4 march, thu
thu423:00−5sw489198 0.1 998177
02:00−7sw479291 0.0 997127
05:00−9sw459295 0.0 99772
08:00−10sw479393 0.0 996105
11:00−5wsw589494 0.2 996508
14:00−4w6885100 0.4 996933
17:00−5w598396 0.4 997489
20:00−10wsw5108750 0.0 998146
5 march, fri
fri523:00−12ssw589125 0.0 998134
02:00−10ssw6129299 0.1 996295
05:00−7s71394100 1.9 993556
08:00−7sw7138796 0.3 993330
11:00−3wsw7138298 0.3 9941146
14:00−2wsw8127999 0.0 9961195
17:00−3wsw6108098 0.1 9981012
20:00−8wsw5108664 0.0 1000197
6 march, sat
sat623:00−10wsw5118945 0.0 1002232
02:00−12wsw511890 0.0 1004242
05:00−14w613890 0.0 1007326
08:00−16w513880 0.0 1008274
11:00−11w611840 0.0 1008606
14:00−7w7117867 0.0 10081356
17:00−8wsw598483 0.1 1008878
20:00−12wsw3488100 0.0 100952
7 march, sun
sun723:00−15w349291 0.0 101047
02:00−18wnw229668 0.0 100920
05:00−19wnw229538 0.0 100920
08:00−20w129425 0.0 100920
11:00−13w228639 0.0 1008196
14:00−10sw238693 0.1 1008443
17:00−10ssw249296 0.1 1008225
20:00−12s379672 0.1 1009156
8 march, mon
mon823:00−15w479252 0.2 101290
02:00−19wnw45945 0.0 101265
05:00−22wsw34932 0.0 101332
08:00−21ssw339146 0.0 101256
11:00−16s588873 0.0 1010333
14:00−12s81392100 0.1 1007681
17:00−9s71290100 0.4 1005670
20:00−9s61389100 0.0 1004473